This demonstration page uses our WeatherBlox Daily Observations layout. Learn more.

Hourly Observations for June 8, 2019

Temp ( °F °C ) Dew Point ( °F °C ) Humidity (%) Winds ( mph kmh ) Pressure ( in mb ) Visibility ( mi km ) Precip ( " mm )
12:15 am 00:15 Clear 68 20.2 60 15.5 75 75 SSE 7 11 29.8 1009 10 16.09344 0 0
12:35 am 00:35 Clear 68 20 60 15.5 75 75 SSE 6 9 29.8 1009 10 16.09344 0 0
12:55 am 00:55 Clear 68 20 60 15.5 75 75 SSE 7 11 29.8 1009 10 16.09344 0 0
1:15 am 01:15 Clear 67 19.7 59 15.2 75 75 SSE 8 13 29.8 1009 10 16.09344 0 0
1:35 am 01:35 Clear 67 19.6 60 15.3 76 76 SSE 8 13 29.8 1009 10 16.09344 0 0
1:55 am 01:55 Clear 67 19.4 60 15.3 77 77 SSE 7 11 29.8 1009 10 16.09344 0 0
2:15 am 02:15 Clear 67 19.5 60 15.5 78 78 SSE 6 9 29.8 1009 10 16.09344 0 0
2:35 am 02:35 Clear 68 20 60 15.7 76 76 S 6 9 29.83 1010 10 16.09344 0 0
2:55 am 02:55 Clear 67 19.7 60 15.8 78 78 S 6 9 29.83 1010 10 16.09344 0 0
3:15 am 03:15 Clear 66 18.7 60 15.7 83 83 S 5 7 29.8 1009 10 16.09344 0 0
3:35 am 03:35 Clear 65 18.6 61 15.9 84 84 SSW 5 7 29.8 1009 10 16.09344 0 0
3:55 am 03:55 Clear 65 18.2 61 16 87 87 SSE 7 11 29.83 1010 10 16.09344 0 0
4:15 am 04:15 Clear 65 18.3 61 16.3 88 88 SSE 8 13 29.8 1009 10 16.09344 0 0
4:35 am 04:35 Clear 65 18.1 62 16.5 90 90 SSE 6 9 29.83 1010 10 16.09344 0 0
4:55 am 04:55 Clear 64 17.8 62 16.5 92 92 SSE 8 13 29.83 1010 10 16.09344 0 0
5:15 am 05:15 Clear 64 17.7 62 16.6 93 93 SSE 7 11 29.83 1010 10 16.09344 0 0
5:35 am 05:35 Clear 64 17.6 62 16.6 94 94 SSE 8 13 29.83 1010 10 16.09344 0 0
5:55 am 05:55 Clear 64 17.8 62 16.7 93 93 SSE 8 13 29.8 1009 10 16.09344 0 0
6:15 am 06:15 Sunny 64 17.8 62 16.5 92 92 SSE 7 11 29.8 1009 10 16.09344 0 0
6:35 am 06:35 Sunny 64 17.7 62 16.6 93 93 SSE 8 13 29.8 1009 10 16.09344 0 0
6:55 am 06:55 Sunny 65 18.2 62 16.8 92 92 SSE 8 13 29.83 1010 10 16.09344 0 0
7:15 am 07:15 Sunny 66 18.7 63 17.1 90 90 SSE 10 17 29.8 1009 10 16.09344 0 0
7:35 am 07:35 Sunny 68 20 64 17.5 86 86 S 13 20 29.8 1009 10 16.09344 0 0
7:55 am 07:55 Sunny 69 20.8 64 17.6 82 82 S 15 24 29.8 1009 10 16.09344 0 0
8:15 am 08:15 Sunny 71 21.6 64 17.7 79 79 S 14 22 29.8 1009 10 16.09344 0 0
8:35 am 08:35 Sunny 72 22 64 17.8 77 77 SSE 14 22 29.77 1008 10 16.09344 0 0
8:55 am 08:55 Sunny 73 22.5 64 17.6 74 74 S 16 26 29.77 1008 10 16.09344 0 0
9:15 am 09:15 Sunny 74 23.1 64 17.7 72 72 S 15 24 29.77 1008 10 16.09344 0 0
9:35 am 09:35 Sunny 75 23.9 64 18 70 70 S 16 26 29.8 1009 10 16.09344 0 0
9:55 am 09:55 Mostly Cloudy 75 24 64 18 69 69 S 17 28 29.8 1009 10 16.09344 0 0
10:15 am 10:15 Cloudy 75 23.7 64 17.7 69 69 S 16 26 29.8 1009 10 16.09344 0 0
10:35 am 10:35 Cloudy 76 24.4 63 17.4 65 65 S 21 33 29.8 1009 10 16.09344 0 0
10:55 am 10:55 Cloudy 77 25.1 64 17.6 63 63 S 16 26 29.77 1008 10 16.09344 0 0
11:15 am 11:15 Mostly Cloudy 79 26.1 64 17.9 61 61 SSE 18 30 29.74 1007 10 16.09344 0 0
11:35 am 11:35 Partly Cloudy 81 27.1 61 16.1 51 51 S 22 35 29.74 1007 10 16.09344 0 0
11:55 am 11:55 Sunny 81 27.2 60 15.5 49 49 S 21 33 29.74 1007 10 16.09344 0 0
12:15 pm 12:15 Sunny 81 27.2 60 15.5 49 49 SSE 24 39 29.74 1007 10 16.09344 0 0
12:35 pm 12:35 Partly Cloudy 81 27.3 63 17.3 54 54 S 20 31 29.71 1006 10 16.09344 0 0
12:55 pm 12:55 Partly Cloudy 82 27.6 63 17.4 54 54 SSE 17 28 29.71 1006 10 16.09344 0 0
1:15 pm 13:15 Partly Cloudy 82 28 63 17.3 52 52 S 21 33 29.71 1006 10 16.09344 0 0
1:35 pm 13:35 Mostly Cloudy 82 28 64 17.7 54 54 S 22 35 29.71 1006 10 16.09344 0 0
1:55 pm 13:55 Mostly Cloudy 82 27.9 63 17.4 53 53 SSE 20 31 29.71 1006 10 16.09344 0 0
2:15 pm 14:15 Mostly Cloudy 82 28 64 17.8 54 54 SSE 20 31 29.71 1006 10 16.09344 0 0
2:35 pm 14:35 Mostly Cloudy 82 27.8 64 17.6 54 54 S 14 22 29.71 1006 10 16.09344 0 0
2:55 pm 14:55 Mostly Cloudy 82 28 64 17.5 53 53 S 15 24 29.71 1006 10 16.09344 0 0
3:15 pm 15:15 Cloudy 82 27.9 64 17.7 54 54 SSE 15 24 29.71 1006 10 16.09344 0 0
3:35 pm 15:35 Mostly Cloudy 84 29.1 65 18.1 52 52 SSE 20 31 29.65 1004 10 16.09344 0 0
3:55 pm 15:55 Partly Cloudy 85 29.2 64 17.9 51 51 SSE 18 30 29.65 1004 10 16.09344 0 0
4:15 pm 16:15 Mostly Cloudy 84 29.1 64 17.9 51 51 S 14 22 29.65 1004 10 16.09344 0 0
4:35 pm 16:35 Cloudy 83 28.3 64 17.5 52 52 SSE 16 26 29.68 1005 10 16.09344 0 0
4:55 pm 16:55 Cloudy 82 28 63 17.1 52 52 SSE 16 26 29.65 1004 10 16.09344 0 0
5:15 pm 17:15 Mostly Cloudy 83 28.3 64 17.5 52 52 SSE 21 33 29.65 1004 10 16.09344 0 0
5:35 pm 17:35 Mostly Cloudy 85 29.5 64 17.6 49 49 SSE 18 30 29.62 1003 10 16.09344 0 0
5:55 pm 17:55 Mostly Cloudy 83 28.6 64 17.6 51 51 SSE 18 30 29.68 1005 10 16.09344 0 0
6:15 pm 18:15 Cloudy 82 27.9 63 17.3 53 53 SSE 18 30 29.65 1004 10 16.09344 0 0
6:35 pm 18:35 Mostly Cloudy 82 27.6 64 17.5 54 54 SSE 16 26 29.65 1004 10 16.09344 0 0
6:55 pm 18:55 Cloudy 81 27.2 64 17.5 55 55 SE 14 22 29.68 1005 10 16.09344 0 0
7:15 pm 19:15 Mostly Cloudy 80 26.9 63 17.2 55 55 SE 14 22 29.68 1005 10 16.09344 0 0
7:35 pm 19:35 Mostly Cloudy 80 26.5 63 17.2 57 57 SE 13 20 29.68 1005 10 16.09344 0 0
7:55 pm 19:55 Partly Cloudy with Nearby Thunderstorms 79 26 63 17.1 58 58 SE 14 22 29.68 1005 10 16.09344 0 0
8:15 pm 20:15 Partly Cloudy with Nearby Thunderstorms 79 25.9 63 17 58 58 SE 15 24 29.68 1005 10 16.09344 0 0
8:35 pm 20:35 Mostly Cloudy with Nearby Thunderstorms 78 25.8 63 17.1 59 59 SE 14 22 29.71 1006 10 16.09344 0 0
8:55 pm 20:55 Cloudy with Nearby Thunderstorms 69 20.7 59 15.1 70 70 WNW 47 76 29.77 1008 5 8.04672 0.01 0.254
9:15 pm 21:15 Cloudy with Heavy Thunderstorms 63 17.3 62 16.5 95 95 SSW 6 9 29.85 1011 3 4.828032 0.23 5.842
9:35 pm 21:35 Mostly Cloudy with Light Thunderstorms 64 17.8 62 16.5 92 92 E 8 13 29.83 1010 10 16.09344 0.29 7.366
9:55 pm 21:55 Clear with Thunderstorms 65 18.2 62 16.6 90 90 ENE 7 11 29.85 1011 10 16.09344 0.29 7.366
10:15 pm 22:15 Mostly Cloudy 65 18.1 62 16.7 92 92 NE 5 7 29.85 1011 10 16.09344 0 0
10:35 pm 22:35 Mostly Cloudy 65 18.4 64 17.9 97 97 ENE 20 31 29.85 1011 10 16.09344 0 0
10:55 pm 22:55 Mostly Cloudy with Nearby Thunderstorms 65 18.6 65 18.1 97 97 ENE 17 28 29.88 1012 10 16.09344 0 0
11:15 pm 23:15 Cloudy with Thunderstorms 65 18.6 64 17.6 94 94 NE 12 19 29.91 1013 10 16.09344 0 0
11:35 pm 23:35 Cloudy with Heavy Thunderstorms 65 18.2 64 17.5 96 96 NNW 9 15 29.91 1013 10 16.09344 0.02 0.508
11:55 pm 23:55 Cloudy with Heavy Thunderstorms 64 17.8 64 17.5 98 98 W 5 7 29.97 1015 1.25 2.01168 0.84 21.336

Powered by AerisWeather